Angel Fire, NM

6:26 PM MDT on April 25, 2018 (GMT -0600)
Angel Fire

Weather History for KAXX - March, 2014

Change the Weather History Date:

Wednesday, March 5, 2014

  Actual Average (KSKX) Record (KSKX)
Temperature  
Mean Temperature 34 °F -  
Max Temperature 48 °F 47 °F 62 °F (2016)
Min Temperature 19 °F 18 °F 6 °F (2011)
Degree Days  
Heating Degree Days 32    
Moisture  
Dew Point 23 °F    
Average Humidity 68    
Maximum Humidity 100    
Minimum Humidity 22    
Precipitation  
Precipitation 0.00 in - - ()
Sea Level Pressure  
Sea Level Pressure 30.14 in    
Wind  
Wind Speed 5 mph (West)    
Max Wind Speed 17 mph    
Max Gust Speed 21 mph    
Visibility 10 miles    
Events Snow    
Averages and records for this station are not official NWS values.
T = Trace of Precipitation, MM = Missing Value Source: NWS Daily Summary

Daily Weather History Graph

Daily Weather History Graph

Search for Another Location

Airport or City:

Astronomy

Mar. 05, 2014 Rise Set
Actual Time 6:26 AM MST 5:59 PM MST
Civil Twilight 6:00 AM MST 6:25 PM MST
Nautical Twilight 5:30 AM MST 6:55 PM MST
Astronomical Twilight 5:00 AM MST 7:25 PM MST
Moon 9:02 AM MST (3/5) 11:01 PM MST (3/5)
Length of Visible Light 12h 25m
Length of Day
11h 33m
Waxing Crescent, 24% of the Moon is Illuminated
Mar 5
Waxing Crescent
Mar 8
First Quarter
Mar 16
Full
Mar 23
Last Quarter
Mar 30
New

Hourly Weather History & Observations

Time (MST) Temp. Windchill Dew Point Humidity Pressure Visibility Wind Dir Wind Speed Gust Speed Precip Events Conditions
12:16 AM 33.8 °F 30.8 °F 30.2 °F 87% 29.98 in 10.0 mi NW 3.5 mph - N/A   Overcast
12:36 AM 32.0 °F 28.7 °F 30.2 °F 93% 29.97 in 1.8 mi WNW 3.5 mph - N/A Snow Light Snow
12:56 AM 32.0 °F - 30.2 °F 93% 29.98 in 1.8 mi Calm Calm - N/A Snow Light Snow
1:16 AM 32.0 °F 28.7 °F 30.2 °F 93% 29.99 in 1.5 mi NNE 3.5 mph - N/A Snow Light Snow
1:36 AM 32.0 °F 27.5 °F 30.2 °F 93% 30.00 in 3.0 mi NNE 4.6 mph - N/A Snow Light Snow
1:56 AM 30.2 °F 25.4 °F 28.4 °F 93% 30.00 in 10.0 mi NNW 4.6 mph - N/A   Overcast
2:16 AM 30.2 °F 25.4 °F 28.4 °F 93% 30.00 in 10.0 mi NNW 4.6 mph - N/A   Overcast
2:36 AM 30.2 °F - 26.6 °F 86% 30.01 in 10.0 mi Calm Calm - N/A   Overcast
2:56 AM 30.2 °F 25.4 °F 26.6 °F 86% 30.01 in 10.0 mi North 4.6 mph - N/A   Overcast
3:16 AM 30.2 °F 26.7 °F 26.6 °F 86% 30.03 in 10.0 mi NW 3.5 mph - N/A   Overcast
3:36 AM 30.2 °F - 26.6 °F 86% 30.04 in 10.0 mi Calm Calm - N/A   Overcast
3:58 AM 30.2 °F 24.3 °F 26.6 °F 86% 30.05 in 10.0 mi North 5.8 mph - N/A   Overcast
4:16 AM 30.2 °F 21.9 °F 26.6 °F 86% 30.06 in 10.0 mi North 9.2 mph - N/A   Overcast
4:36 AM 30.2 °F 24.3 °F 24.8 °F 80% 30.07 in 10.0 mi NNE 5.8 mph - N/A   Overcast
4:58 AM 30.2 °F 23.4 °F 24.8 °F 80% 30.07 in 10.0 mi NNE 6.9 mph - N/A   Overcast
5:18 AM 30.2 °F 25.4 °F 24.8 °F 80% 30.08 in 10.0 mi NNE 4.6 mph - N/A   Overcast
5:36 AM 28.4 °F 23.3 °F 24.8 °F 86% 30.09 in 10.0 mi NE 4.6 mph - N/A   Overcast
5:57 AM 28.4 °F 23.3 °F 24.8 °F 86% 30.09 in 10.0 mi NE 4.6 mph - N/A   Overcast
6:17 AM 24.8 °F - 21.2 °F 86% 30.10 in 10.0 mi Calm Calm - N/A   Scattered Clouds
6:36 AM 24.8 °F - 21.2 °F 86% 30.10 in 10.0 mi Calm Calm - N/A   Scattered Clouds
6:56 AM 19.4 °F 11.5 °F 19.4 °F 100% 30.10 in 10.0 mi West 5.8 mph - N/A   Scattered Clouds
7:16 AM 24.8 °F - 21.2 °F 86% 30.11 in 10.0 mi Calm Calm - N/A   Scattered Clouds
7:36 AM 24.8 °F - 21.2 °F 86% 30.12 in 10.0 mi Calm Calm - N/A   Clear
7:56 AM 28.4 °F - 23.0 °F 80% 30.12 in 10.0 mi Calm Calm - N/A   Clear
8:16 AM 28.4 °F - 24.8 °F 86% 30.13 in 10.0 mi Calm Calm - N/A   Clear
8:36 AM 32.0 °F - 24.8 °F 75% 30.14 in 10.0 mi Calm Calm - N/A   Clear
8:56 AM 33.8 °F 28.6 °F 26.6 °F 75% 30.15 in 10.0 mi SSW 5.8 mph - N/A   Clear
9:16 AM 33.8 °F 27.7 °F 26.6 °F 75% 30.15 in 10.0 mi WSW 6.9 mph - N/A   Clear
9:36 AM 35.6 °F 30.7 °F 26.6 °F 70% 30.15 in 10.0 mi SW 5.8 mph - N/A   Scattered Clouds
9:56 AM 35.6 °F 29.9 °F 26.6 °F 70% 30.15 in 10.0 mi WSW 6.9 mph - N/A   Scattered Clouds
10:16 AM 37.4 °F 30.8 °F 26.6 °F 65% 30.16 in 10.0 mi SW 9.2 mph - N/A   Clear
10:36 AM 37.4 °F 29.8 °F 28.4 °F 70% 30.16 in 10.0 mi SW 11.5 mph - N/A   Clear
10:56 AM 37.4 °F 29.8 °F 28.4 °F 70% 30.17 in 10.0 mi West 11.5 mph 16.1 mph N/A   Scattered Clouds
11:16 AM 39.2 °F 32.5 °F 28.4 °F 65% 30.18 in 10.0 mi WSW 10.4 mph - N/A   Clear
11:36 AM 39.2 °F 31.6 °F 28.4 °F 65% 30.18 in 10.0 mi West 12.7 mph 20.7 mph N/A   Clear
11:56 AM 39.2 °F 32.0 °F 28.4 °F 65% 30.17 in 10.0 mi West 11.5 mph 20.7 mph N/A   Clear
12:16 PM 41.0 °F 33.9 °F 28.4 °F 61% 30.17 in 10.0 mi WSW 12.7 mph 18.4 mph N/A   Clear
12:36 PM 41.0 °F 32.8 °F 28.4 °F 61% 30.16 in 10.0 mi West 16.1 mph - N/A   Clear
12:56 PM 42.8 °F 34.8 °F 28.4 °F 57% 30.16 in 10.0 mi WSW 17.3 mph - N/A   Clear
1:16 PM 42.8 °F 35.1 °F 26.6 °F 53% 30.15 in 10.0 mi SW 16.1 mph 20.7 mph N/A   Clear
1:36 PM 44.6 °F 37.4 °F 26.6 °F 49% 30.15 in 10.0 mi WSW 16.1 mph 19.6 mph N/A   Clear
1:56 PM 44.6 °F 38.8 °F 23.0 °F 43% 30.16 in 10.0 mi SW 11.5 mph 20.7 mph N/A   Clear
2:16 PM 44.6 °F 38.8 °F 17.6 °F 34% 30.16 in 10.0 mi SW 11.5 mph - N/A   Clear
2:36 PM 44.6 °F 38.4 °F 15.8 °F 31% 30.16 in 10.0 mi WSW 12.7 mph - N/A   Clear
2:56 PM 46.4 °F 41.1 °F 14.0 °F 27% 30.15 in 10.0 mi WSW 11.5 mph - N/A   Clear
3:16 PM 46.4 °F 41.5 °F 12.2 °F 25% 30.15 in 10.0 mi WSW 10.4 mph - N/A   Clear
3:36 PM 46.4 °F 42.9 °F 8.6 °F 22% 30.16 in 10.0 mi SW 6.9 mph 16.1 mph N/A   Mostly Cloudy
3:56 PM 48.2 °F - 12.2 °F 24% 30.17 in 10.0 mi NW 10.4 mph 19.6 mph N/A   Mostly Cloudy
4:16 PM 46.4 °F 41.9 °F 12.2 °F 25% 30.17 in 10.0 mi NNW 9.2 mph - N/A   Scattered Clouds
4:36 PM 46.4 °F 41.9 °F 8.6 °F 22% 30.18 in 10.0 mi NW 9.2 mph 17.3 mph N/A   Clear
4:56 PM 44.6 °F 39.7 °F 8.6 °F 23% 30.18 in 10.0 mi NW 9.2 mph - N/A   Clear
5:16 PM 44.6 °F 40.7 °F 10.4 °F 25% 30.18 in 10.0 mi NW 6.9 mph - N/A   Clear
5:36 PM 42.8 °F 37.5 °F 15.8 °F 34% 30.18 in 10.0 mi West 9.2 mph - N/A   Clear
5:56 PM 39.2 °F 34.2 °F 19.4 °F 45% 30.19 in 10.0 mi West 6.9 mph - N/A   Clear
6:16 PM 37.4 °F 31.4 °F 19.4 °F 48% 30.20 in 10.0 mi West 8.1 mph - N/A   Clear
6:36 PM 35.6 °F - 21.2 °F 56% 30.20 in 10.0 mi Calm Calm - N/A   Clear
6:56 PM 35.6 °F - 19.4 °F 52% 30.22 in 10.0 mi Calm Calm - N/A   Clear
7:16 PM 33.8 °F - 21.2 °F 60% 30.22 in 10.0 mi Calm Calm - N/A   Clear
7:36 PM 32.0 °F 26.4 °F 21.2 °F 64% 30.22 in 10.0 mi SSE 5.8 mph - N/A   Clear
7:56 PM 28.4 °F 24.6 °F 23.0 °F 80% 30.23 in 10.0 mi SSW 3.5 mph - N/A   Clear
8:16 PM 30.2 °F - 23.0 °F 75% 30.24 in 10.0 mi Calm Calm - N/A   Clear
8:36 PM 30.2 °F 26.7 °F 21.2 °F 69% 30.24 in 10.0 mi SSE 3.5 mph - N/A   Clear
8:56 PM 30.2 °F - 21.2 °F 69% 30.25 in 10.0 mi Calm Calm - N/A   Clear
9:16 PM 32.0 °F 27.5 °F 21.2 °F 64% 30.25 in 10.0 mi South 4.6 mph - N/A   Clear
9:36 PM 28.4 °F - 21.2 °F 74% 30.25 in 10.0 mi Calm Calm - N/A   Clear
9:56 PM 28.4 °F - 23.0 °F 80% 30.26 in 10.0 mi Calm Calm - N/A   Clear
10:16 PM 26.6 °F - 23.0 °F 86% 30.26 in 10.0 mi Calm Calm - N/A   Clear
10:36 PM 26.6 °F - 21.2 °F 80% 30.26 in 10.0 mi Calm Calm - N/A   Clear
10:56 PM 24.8 °F - 21.2 °F 86% 30.26 in 10.0 mi Calm Calm - N/A   Clear
11:16 PM 24.8 °F - 21.2 °F 86% 30.26 in 10.0 mi Calm Calm - N/A   Clear
11:36 PM 24.8 °F - 21.2 °F 86% 30.26 in 10.0 mi Calm Calm - N/A   Clear
11:56 PM 24.8 °F - 21.2 °F 86% 30.27 in 10.0 mi Calm Calm - N/A   Clear